Temperature
4 5 5 4 4 4 4 5 6 8 8 8 8 7 7 8 8 7 7 7 6 6 6 6 6 6 5 5 5 5 5 5 4 4 4 4 4 4 4 4 4 3 3 3
4 5 5 4 4 4 5 5 6 7 7 8 8 8 7 7 7 7 6 6 6 6 6 6 5 5 5 5 5 4 4 4 4 4 4 4 4 4 3 3 3 3 3 2
3 4 4 3 4 4 4 5 6 6 6 7 6 6 6 6 6 6 6 6 5 5 5 5 5 5 5 4 4 4 4 4 4 3 3 3 3 3 3 3 3 2 2 2
3 3 3 4 5 5 5 5 5 5 5 6 6 6 6 6 5 5 5 5 5 5 5 5 5 4 4 4 4 4 3 3 3 3 3 3 3 3 2 2 2 2 2 2
2 2 3 4 4 4 4 3 4 4 5 5 5 5 4 5 5 5 5 5 5 4 4 4 4 4 4 3 3 3 3 3 3 2 2 2 2 2 2 2 2 2 1 1
2 3 3 3 4 4 4 3 4 4 4 4 4 3 3 4 4 4 4 4 4 4 4 4 3 3 3 3 3 3 3 2 2 2 2 2 2 2 1 1 1 1 1 0
1 2 2 3 3 4 3 2 3 4 4 3 3 3 3 3 3 3 3 3 3 3 3 3 3 3 3 2 2 2 2 2 2 1 1 1 1 1 1 1 1 1 0 -0
1 2 2 2 2 2 2 3 3 3 3 2 2 2 2 2 2 2 3 3 3 3 2 2 2 2 2 2 2 1 1 1 1 1 1 1 0 0 0 -0 0 -0 -0 -1
1 1 1 2 2 2 2 2 2 2 2 2 2 1 1 1 1 1 2 2 2 2 1 1 1 1 1 1 1 1 1 1 0 0 -0 -0 -0 -0 -1 -1 -1 -1 -1 -2
0 1 1 1 1 1 1 1 1 1 1 1 1 1 1 1 1 1 1 1 1 1 1 0 0 0 0 0 0 0 0 -0 -0 -1 -1 -1 -1 -1 -1 -1 -2 -2 -2 -2
-1 -1 0 0 0 0 0 1 1 1 1 0 0 0 0 -0 -0 -0 -0 -0 -0 -0 -0 -0 -0 -0 -0 -0 -0 -0 -1 -1 -1 -1 -2 -2 -2 -2 -2 -2 -2 -3 -3 -3
-1 -1 -1 -1 -1 -1 -0 -0 -0 -0 -0 -0 -0 -1 -1 -1 -1 -1 -1 -1 -1 -1 -1 -1 -1 -1 -1 -1 -1 -1 -1 -2 -2 -2 -2 -2 -2 -2 -2 -2 -3 -3 -3 -3
-2 -2 -1 -1 -1 -1 -1 -1 -1 -1 -1 -1 -1 -1 -1 -2 -2 -2 -2 -2 -1 -1 -1 -2 -2 -2 -2 -2 -2 -2 -2 -2 -3 -3 -3 -3 -3 -3 -3 -2 -3 -3 -3 -4
-2 -2 -2 -2 -2 -2 -2 -2 -2 -2 -2 -2 -2 -2 -2 -2 -2 -2 -2 -2 -2 -2 -2 -2 -2 -2 -2 -3 -3 -3 -3 -3 -3 -3 -3 -3 -4 -4 -4 -4 -3 -3 -3 -4
-3 -3 -3 -3 -3 -3 -3 -3 -3 -3 -3 -3 -3 -3 -3 -3 -3 -3 -3 -3 -3 -3 -3 -3 -3 -3 -3 -3 -3 -3 -3 -3 -4 -4 -4 -4 -4 -4 -4 -4 -4 -4 -4 -4
-4 -4 -4 -4 -4 -4 -4 -4 -4 -4 -4 -4 -4 -4 -4 -3 -3 -3 -3 -3 -3 -3 -3 -3 -4 -4 -4 -4 -4 -4 -4 -4 -4 -4 -4 -4 -4 -5 -5 -5 -5 -5 -5 -4
-5 -5 -5 -5 -5 -5 -5 -5 -5 -5 -5 -4 -4 -4 -4 -4 -4 -4 -4 -4 -4 -4 -4 -4 -4 -4 -4 -4 -4 -4 -4 -4 -5 -5 -5 -5 -5 -5 -5 -5 -5 -5 -5 -5
-5 -5 -5 -5 -5 -5 -5 -5 -5 -5 -5 -5 -5 -5 -5 -5 -5 -5 -5 -5 -5 -5 -5 -5 -5 -5 -5 -5 -5 -5 -5 -5 -5 -5 -5 -5 -5 -5 -5 -5 -5 -5 -5 -5
-6 -6 -6 -6 -6 -6 -6 -6 -6 -6 -6 -6 -5 -5 -6 -6 -6 -5 -5 -5 -5 -5 -5 -6 -6 -5 -5 -5 -5 -5 -5 -5 -5 -5 -6 -6 -5 -5 -5 -5 -5 -5 -5 -5
-6 -6 -6 -6 -6 -6 -6 -6 -6 -6 -6 -6 -6 -6 -6 -6 -6 -6 -6 -6 -6 -6 -6 -6 -6 -6 -6 -6 -6 -6 -6 -6 -6 -6 -6 -6 -6 -6 -6 -6 -6 -6 -5 -5
-7 -7 -7 -7 -7 -7 -7 -7 -7 -7 -7 -7 -7 -7 -7 -7 -7 -7 -7 -7 -7 -7 -7 -7 -7 -6 -6 -6 -6 -6 -6 -6 -6 -6 -6 -6 -6 -6 -6 -6 -6 -6 -6 -6
-7 -7 -7 -7 -7 -7 -7 -7 -7 -7 -7 -7 -7 -7 -7 -7 -7 -7 -7 -7 -7 -7 -7 -7 -7 -7 -7 -7 -7 -7 -7 -7 -7 -7 -7 -7 -7 -6 -6 -6 -6 -6 -6 -6
-8 -8 -8 -8 -8 -8 -8 -8 -8 -8 -8 -8 -8 -8 -8 -8 -8 -8 -8 -8 -8 -8 -8 -8 -8 -8 -8 -7 -7 -7 -7 -7 -7 -7 -7 -7 -7 -7 -7 -6 -6 -6 -6 -6
-8 -8 -8 -8 -8 -8 -8 -8 -8 -8 -8 -8 -8 -8 -8 -8 -8 -8 -8 -8 -8 -8 -8 -8 -8 -8 -8 -8 -8 -8 -7 -7 -7 -7 -7 -7 -7 -7 -7 -7 -6 -6 -6 -6
-9 -9 -9 -9 -9 -9 -9 -9 -9 -9 -9 -9 -9 -9 -9 -9 -9 -9 -9 -9 -8 -8 -8 -8 -8 -8 -8 -8 -8 -8 -8 -8 -8 -7 -7 -7 -7 -7 -7 -7 -6 -6 -6 -6
-9 -9 -9 -9 -9 -9 -9 -9 -9 -9 -9 -9 -9 -9 -9 -9 -9 -9 -9 -9 -9 -9 -9 -8 -8 -8 -8 -8 -8 -8 -8 -8 -8 -7 -7 -7 -7 -7 -7 -7 -7 -6 -6 -6
-9 -9 -9 -9 -10 -10 -10 -10 -10 -10 -10 -10 -10 -9 -9 -9 -9 -9 -9 -9 -9 -9 -9 -9 -9 -9 -8 -8 -8 -8 -8 -8 -8 -7 -7 -7 -7 -7 -7 -7 -7 -6 -6 -6
Wind_Speed
6 5 3 5 8 10 10 9 6 5 5 4 3 4 4 4 5 5 4 4 3 3 2 3 3 3 3 3 3 3 3 2 1 1 0 1 2 2 3 4 4 5 5 6
5 5 4 5 7 11 11 9 8 4 3 1 3 4 4 3 3 3 3 3 3 2 2 3 2 3 3 2 2 3 3 2 1 1 1 1 2 2 3 4 4 5 5 5
3 3 2 6 8 10 8 7 8 8 5 3 2 2 2 2 2 2 3 3 3 2 2 2 2 2 2 2 3 3 2 2 2 1 1 1 2 3 3 4 4 5 5 5
2 2 6 4 1 7 7 4 4 3 2 3 3 2 2 3 2 1 2 2 2 2 2 2 3 3 3 3 3 3 2 2 1 1 1 2 2 3 4 4 4 4 5 5
2 4 4 3 1 2 4 3 2 3 2 2 3 3 1 2 2 1 1 1 2 2 2 3 3 3 3 3 3 2 2 1 1 1 1 2 3 4 4 4 4 4 5 5
3 3 3 2 2 2 2 2 1 1 1 2 3 3 1 2 3 3 3 3 3 3 4 3 3 4 4 2 2 1 1 1 1 1 2 2 3 4 4 4 4 5 5 5
5 3 2 3 2 1 3 3 2 2 2 3 2 2 2 4 4 4 4 4 4 4 4 3 3 4 3 2 1 1 1 1 1 1 2 3 3 3 4 4 5 5 5 5
4 4 3 2 2 2 1 2 4 4 4 4 3 4 4 5 4 4 4 4 4 4 4 3 3 4 3 2 2 2 2 1 2 2 2 2 3 3 3 4 4 5 5 5
2 2 1 3 3 2 3 3 3 3 4 4 3 3 3 4 3 4 4 4 4 4 4 4 4 4 3 2 3 3 2 2 2 3 3 2 2 3 4 4 4 4 4 5
0 1 2 3 4 5 5 4 4 4 4 4 4 3 3 3 3 4 4 4 4 4 4 4 4 4 3 3 3 3 2 2 2 3 3 3 3 3 3 3 4 4 5 5
0 1 2 3 4 5 5 5 5 5 5 4 3 3 3 3 3 3 3 3 4 4 3 3 3 4 3 3 3 3 2 2 3 3 3 3 3 3 3 3 3 4 4 4
1 1 1 1 3 4 4 4 4 4 5 5 3 3 3 3 3 3 3 3 3 3 3 3 3 3 3 3 3 3 2 3 3 3 3 3 4 5 6 6 8 8 8 7
2 3 2 2 3 5 4 5 4 4 4 4 4 4 3 3 3 3 3 3 3 3 2 3 3 3 3 3 3 2 2 3 3 3 3 3 4 4 5 7 9 8 8 9
5 4 3 4 4 5 5 5 5 5 5 4 4 4 4 4 4 4 3 3 3 3 3 3 3 3 3 3 3 2 2 3 3 2 3 3 3 4 4 5 6 6 7 9
6 5 2 3 4 5 5 5 5 5 5 5 5 5 4 4 4 3 3 3 3 3 3 3 3 3 4 3 3 3 2 2 2 3 3 3 3 4 4 4 5 5 5 7
5 4 4 4 5 5 5 5 5 4 4 5 5 5 4 3 3 3 3 3 3 3 3 3 3 3 4 3 3 3 2 4 4 3 3 3 3 4 4 4 4 5 5 5
4 4 4 4 5 5 5 4 3 3 4 4 4 3 3 3 3 3 3 3 3 3 3 3 3 3 3 3 3 2 2 3 5 4 3 3 3 3 4 4 4 4 5 6
4 3 3 2 2 3 4 4 4 4 3 3 3 3 3 3 3 3 3 3 3 3 4 3 3 4 3 3 3 2 2 3 3 3 3 3 3 3 4 4 4 5 5 6
5 5 4 4 3 3 3 3 3 3 3 3 3 3 3 3 2 2 2 3 3 3 4 4 6 5 4 4 4 2 2 3 3 3 3 5 5 4 4 4 4 4 5 5
5 5 5 5 4 4 3 3 3 3 3 3 3 3 3 3 3 3 3 2 2 2 3 4 4 3 4 4 5 3 3 3 3 3 3 3 4 4 4 4 4 4 4 4
5 5 5 4 4 4 4 4 3 3 4 4 3 3 3 3 3 3 2 2 3 4 4 5 4 3 3 4 5 3 3 3 3 3 4 4 4 4 4 4 4 4 4 4
4 4 4 4 4 4 4 4 4 4 4 4 4 3 3 3 3 2 2 1 3 6 4 3 3 5 6 6 3 3 3 4 4 3 3 4 4 4 4 5 4 4 4 3
3 3 3 3 3 3 4 4 4 4 4 4 3 3 3 3 2 2 3 3 3 6 5 3 6 8 8 4 3 3 4 4 4 4 4 4 4 4 5 5 4 4 3 3
3 3 3 3 3 4 4 4 4 3 3 3 3 3 3 3 3 2 2 5 7 7 4 6 9 9 8 4 3 3 3 4 4 4 4 4 4 5 5 4 4 3 3 3
3 3 3 3 3 3 2 3 3 3 3 2 3 3 2 1 2 3 3 4 7 7 5 7 9 9 6 4 4 4 4 4 4 4 4 4 4 5 5 4 3 3 3 3
2 2 2 2 2 2 2 2 2 2 3 3 3 3 2 2 2 3 3 4 5 7 5 4 5 6 4 4 4 4 4 5 6 5 5 5 5 5 4 4 4 3 3 3
2 2 2 2 2 2 2 2 2 3 3 3 3 3 3 3 3 3 4 4 4 4 4 4 4 4 4 4 4 4 4 4 4 5 4 4 4 4 4 4 3 3 3 3
Wind_Direction
271 279 214 214 212 202 207 218 219 218 194 186 164 152 131 118 114 111 111 115 120 127 133 136 138 139 139 144 142 137 146 148 159 143 81 351 325 314 307 300 296 292 292 292
262 248 238 239 217 208 215 224 236 240 243 176 115 103 106 113 122 125 135 132 122 109 109 123 130 134 130 135 143 140 139 142 125 90 43 351 317 307 306 305 304 302 297 296
243 233 231 247 220 202 207 211 208 221 224 149 134 135 143 136 126 149 145 131 124 117 102 103 107 117 128 132 119 124 128 125 110 95 20 324 313 313 308 308 311 307 301 299
229 208 225 238 257 189 192 215 206 185 168 155 149 129 86 92 102 75 91 117 116 109 94 82 85 90 96 104 111 114 112 104 91 62 339 323 318 314 311 310 307 305 306 307
208 227 245 269 296 169 180 244 243 200 182 137 129 106 50 62 66 63 60 93 116 109 100 84 83 86 88 91 94 95 90 74 39 351 315 316 313 309 310 313 310 307 305 305
220 230 235 277 313 294 135 258 331 119 148 146 133 169 226 53 58 59 59 68 81 84 81 80 75 81 85 85 90 92 82 28 337 326 315 306 303 306 310 310 308 312 311 309
225 235 265 325 328 80 159 225 39 77 76 90 123 153 110 73 63 73 72 73 81 80 77 71 72 79 80 73 64 45 38 10 342 328 314 305 306 306 313 314 314 313 310 309
208 219 245 2 82 125 116 61 63 61 65 69 72 76 75 71 66 67 69 68 74 77 68 60 69 79 69 40 23 35 34 15 343 328 321 323 316 316 318 320 318 316 317 320
184 189 78 82 77 50 40 43 40 54 67 79 77 76 77 75 67 66 68 67 67 77 70 53 52 67 64 21 28 31 20 1 342 334 330 327 322 323 327 327 324 322 325 325
69 34 47 58 47 38 37 37 39 56 64 75 81 70 71 74 71 71 67 69 70 70 65 51 42 47 48 29 28 29 7 350 347 343 339 337 334 323 323 326 326 325 327 324
231 347 13 23 26 25 30 37 41 47 51 58 79 72 77 79 73 71 67 63 65 72 67 49 40 41 41 34 27 22 4 353 349 345 340 337 332 323 320 311 313 315 315 315
264 303 310 324 16 28 32 29 34 45 43 37 51 68 73 70 66 69 70 66 64 60 54 43 38 30 30 30 28 20 6 357 348 340 338 335 330 331 332 327 325 322 319 319
341 340 341 351 35 38 41 38 39 45 49 42 42 62 74 77 64 63 63 63 61 51 42 38 32 23 22 23 22 15 351 336 334 335 334 330 330 331 329 332 331 329 329 329
16 16 20 22 31 35 45 48 51 51 48 49 52 57 65 66 63 57 51 50 51 48 42 39 34 21 11 12 7 353 335 324 326 316 318 320 322 321 320 324 328 332 333 334
8 14 33 43 47 40 43 52 54 46 43 41 47 53 57 61 60 51 44 40 42 44 40 33 27 13 6 4 355 342 336 332 329 324 326 327 325 321 319 321 319 323 328 331
354 23 49 55 48 42 42 42 47 40 39 42 44 42 46 56 56 47 36 33 36 28 25 21 12 358 355 355 350 341 330 327 329 322 323 324 321 319 317 317 318 322 323 323
14 19 27 33 31 32 31 33 38 37 36 38 35 37 47 55 48 35 28 30 32 31 31 20 354 347 349 350 344 331 327 326 330 325 317 312 312 310 309 312 315 316 314 318
21 22 23 21 20 22 24 32 35 34 31 25 25 42 49 49 40 20 19 27 30 28 19 4 352 350 350 348 341 325 321 320 318 314 313 313 312 307 306 309 312 313 314 319
26 30 32 34 34 43 44 36 29 27 23 26 43 50 45 37 27 15 20 24 20 7 350 346 349 356 347 339 339 327 323 321 319 315 312 313 315 311 309 309 310 310 313 317
31 32 39 43 44 49 47 36 35 33 25 33 49 49 38 25 20 20 27 25 7 339 330 340 348 345 337 331 333 325 321 318 315 313 312 308 305 307 308 308 307 307 312 316
26 30 36 42 41 37 36 33 40 39 32 38 49 47 35 16 14 12 12 357 343 348 348 346 350 338 330 329 330 329 324 319 314 310 307 306 305 306 305 305 306 309 312 318
23 29 31 36 42 35 30 33 42 47 42 41 40 36 29 16 9 9 4 330 328 342 349 341 335 332 333 334 333 326 318 313 308 306 305 303 302 302 303 304 306 309 313 318
24 30 31 34 39 38 35 34 38 42 39 31 24 18 13 4 0 2 347 342 339 342 345 332 332 334 335 337 330 321 314 311 307 304 301 299 298 298 297 300 304 310 318 321
30 29 27 31 42 48 37 24 28 32 26 17 17 11 2 357 354 353 327 331 338 338 335 330 334 335 334 337 329 322 315 311 308 304 302 300 298 298 299 300 306 313 316 318
31 34 37 36 38 35 29 21 18 14 12 10 5 1 357 351 330 329 331 329 331 335 331 330 332 333 335 330 325 319 314 309 307 306 300 301 301 302 304 306 311 312 314 316
24 27 30 31 28 20 14 15 15 10 10 5 359 354 347 340 328 323 322 320 318 324 324 319 322 324 325 321 316 313 310 310 312 312 310 309 310 309 308 311 309 307 307 308
22 27 30 27 23 20 16 12 10 0 356 351 340 337 338 339 337 332 328 325 321 320 318 318 318 319 318 316 313 311 310 308 304 304 307 308 309 309 310 310 309 310 310 309
Height
1421 1418 1420 1422 1424 1425 1428 1424 1424 1417 1420 1420 1421 1422 1423 1425 1427 1430 1432 1433 1435 1436 1438 1439 1440 1441 1442 1444 1445 1446 1447 1447 1448 1448 1449 1449 1449 1449 1448 1447 1446 1444 1443 1441
1421 1416 1417 1418 1418 1420 1422 1421 1420 1418 1420 1418 1419 1422 1424 1426 1427 1429 1431 1433 1434 1435 1437 1438 1438 1439 1440 1441 1442 1444 1444 1445 1446 1446 1446 1446 1446 1445 1444 1443 1442 1440 1438 1437
1421 1416 1416 1420 1414 1416 1417 1416 1417 1419 1419 1419 1420 1422 1424 1426 1427 1429 1430 1432 1433 1434 1435 1436 1437 1438 1438 1439 1441 1442 1443 1443 1443 1444 1444 1444 1443 1442 1441 1439 1438 1436 1434 1432
1421 1421 1423 1414 1406 1407 1411 1413 1414 1415 1417 1418 1420 1422 1423 1425 1427 1428 1429 1430 1431 1432 1433 1434 1435 1436 1437 1438 1439 1440 1441 1441 1441 1441 1441 1441 1440 1439 1438 1436 1434 1432 1430 1428
1422 1419 1412 1410 1407 1408 1412 1415 1413 1414 1416 1417 1419 1421 1423 1425 1426 1427 1428 1429 1430 1431 1432 1433 1434 1435 1436 1436 1437 1438 1438 1439 1439 1439 1438 1438 1437 1436 1434 1432 1431 1429 1427 1424
1419 1416 1413 1412 1408 1407 1410 1416 1413 1413 1415 1416 1418 1423 1425 1424 1424 1425 1426 1427 1428 1430 1431 1431 1432 1433 1434 1435 1436 1436 1437 1437 1437 1436 1436 1434 1433 1432 1431 1429 1427 1425 1423 1421
1418 1416 1414 1412 1409 1408 1417 1418 1413 1413 1414 1416 1418 1421 1423 1423 1423 1424 1425 1426 1427 1428 1429 1430 1431 1432 1432 1433 1434 1434 1435 1435 1435 1434 1433 1432 1431 1429 1428 1426 1424 1422 1420 1418
1415 1416 1418 1413 1411 1415 1416 1413 1413 1414 1415 1417 1418 1419 1421 1422 1423 1423 1424 1425 1426 1427 1428 1429 1430 1431 1431 1432 1433 1433 1433 1432 1432 1431 1430 1429 1428 1426 1425 1423 1421 1418 1416 1414
1415 1417 1414 1413 1414 1415 1414 1414 1414 1415 1416 1417 1418 1419 1420 1421 1423 1423 1424 1425 1425 1426 1427 1428 1429 1430 1430 1430 1430 1430 1430 1429 1429 1428 1428 1427 1425 1424 1422 1420 1418 1416 1413 1411
1414 1414 1414 1415 1415 1415 1415 1415 1415 1416 1416 1417 1418 1419 1420 1421 1422 1423 1424 1424 1425 1426 1426 1427 1428 1428 1428 1428 1428 1428 1427 1427 1426 1426 1425 1424 1423 1421 1420 1418 1416 1413 1411 1408
1416 1417 1416 1415 1416 1416 1416 1416 1416 1416 1417 1418 1418 1419 1420 1421 1422 1423 1424 1424 1425 1425 1426 1426 1426 1426 1427 1426 1426 1426 1425 1425 1424 1424 1423 1422 1421 1420 1418 1416 1414 1412 1409 1407
1418 1418 1417 1417 1416 1416 1416 1416 1417 1417 1417 1418 1419 1419 1420 1421 1422 1422 1423 1424 1424 1425 1425 1425 1425 1425 1425 1425 1424 1424 1423 1423 1422 1422 1421 1420 1418 1417 1416 1414 1412 1410 1408 1405
1418 1417 1416 1416 1417 1417 1416 1417 1417 1417 1417 1418 1418 1419 1420 1420 1421 1422 1422 1423 1423 1424 1424 1424 1424 1424 1423 1423 1423 1422 1421 1421 1420 1419 1418 1417 1416 1414 1412 1411 1410 1408 1405 1403
1417 1416 1416 1416 1417 1417 1417 1417 1417 1417 1417 1418 1418 1419 1419 1420 1421 1421 1422 1422 1423 1423 1423 1422 1422 1422 1422 1421 1421 1420 1419 1419 1418 1417 1416 1415 1414 1412 1410 1408 1406 1404 1402 1400
1417 1416 1417 1416 1416 1417 1417 1416 1416 1417 1417 1417 1418 1418 1419 1419 1420 1421 1421 1422 1422 1421 1421 1421 1420 1420 1420 1419 1419 1418 1417 1416 1416 1415 1414 1413 1411 1410 1408 1406 1404 1402 1399 1397
1417 1417 1416 1416 1416 1416 1416 1416 1416 1417 1417 1417 1418 1418 1419 1419 1420 1420 1420 1421 1420 1420 1420 1419 1419 1418 1418 1417 1416 1416 1415 1414 1414 1413 1412 1410 1409 1407 1406 1404 1402 1400 1398 1395
1418 1417 1417 1417 1417 1416 1417 1417 1417 1417 1417 1418 1418 1418 1418 1419 1419 1419 1419 1419 1419 1419 1418 1418 1417 1416 1416 1415 1414 1414 1413 1412 1411 1410 1409 1408 1407 1405 1404 1402 1400 1398 1396 1394
1419 1418 1418 1417 1417 1417 1417 1417 1417 1417 1417 1418 1418 1418 1418 1418 1418 1418 1419 1418 1418 1418 1417 1416 1415 1415 1414 1413 1412 1412 1411 1410 1409 1408 1407 1406 1404 1403 1402 1400 1398 1396 1394 1393
1419 1418 1418 1418 1418 1417 1417 1417 1417 1417 1417 1418 1418 1417 1418 1418 1418 1418 1418 1417 1417 1416 1416 1415 1414 1413 1412 1411 1410 1409 1409 1408 1407 1406 1405 1403 1402 1401 1400 1398 1396 1395 1393 1391
1419 1418 1418 1418 1418 1417 1417 1417 1417 1417 1417 1417 1417 1417 1417 1417 1417 1417 1417 1416 1416 1415 1414 1413 1412 1411 1410 1409 1408 1407 1406 1405 1404 1403 1402 1401 1400 1399 1397 1396 1394 1393 1391 1389
1419 1419 1418 1418 1418 1418 1417 1417 1417 1417 1417 1417 1417 1417 1417 1417 1417 1416 1415 1415 1414 1414 1413 1412 1410 1409 1408 1407 1406 1405 1404 1403 1402 1401 1400 1399 1398 1396 1395 1394 1392 1391 1389 1388
1420 1419 1419 1418 1418 1418 1418 1417 1417 1417 1417 1416 1416 1416 1416 1416 1416 1415 1414 1414 1413 1412 1411 1410 1408 1407 1406 1405 1404 1403 1402 1401 1400 1399 1398 1397 1395 1394 1393 1392 1390 1389 1388 1386
1420 1420 1419 1419 1418 1418 1418 1418 1417 1417 1417 1417 1416 1416 1416 1415 1415 1414 1413 1413 1412 1411 1409 1408 1407 1406 1404 1403 1402 1401 1400 1399 1398 1397 1396 1394 1393 1392 1391 1390 1388 1387 1386 1384
1420 1420 1420 1419 1419 1418 1418 1418 1418 1418 1417 1417 1416 1416 1415 1415 1414 1413 1412 1412 1410 1409 1408 1406 1405 1404 1402 1401 1400 1399 1398 1397 1396 1395 1393 1392 1391 1390 1389 1388 1387 1385 1384 1383
1421 1421 1420 1420 1419 1419 1419 1419 1418 1418 1417 1417 1416 1416 1415 1414 1413 1412 1411 1410 1409 1407 1406 1405 1403 1402 1400 1399 1398 1397 1396 1395 1394 1392 1391 1390 1389 1388 1387 1386 1385 1384 1383 1381
1421 1421 1421 1420 1420 1420 1419 1419 1418 1418 1417 1416 1416 1415 1414 1413 1412 1411 1410 1408 1407 1406 1404 1402 1401 1400 1398 1397 1396 1395 1393 1393 1391 1390 1389 1388 1387 1386 1385 1384 1383 1382 1381 1380
1422 1422 1421 1421 1421 1420 1419 1419 1418 1418 1417 1416 1415 1414 1413 1412 1411 1409 1408 1406 1405 1403 1402 1400 1399 1397 1396 1395 1394 1392 1391 1390 1389 1388 1387 1386 1385 1384 1383 1382 1381 1380 1379 1378